[[{"header":{"parameterUnit":"m.s-1","parameterCategory":1,"la1":30.2992,"la2":30.254,"lo1":-89.0895,"lo2":-89.0443,"dy":0.0025,"dx":0.0025,"nx":19,"ny":19,"refTime":"2026-04-07T03:00:00:Z","depth":0,"parameterNumber":2,"parameterNumberName":"U-component_of_WINDS"},"data":[0,0,0,-6.9906,-6.9913,-7.0198,-7.0199,-7.0626,-7.0631,0,0,0,0,0,0,0,0,0,0,0,-6.9858,-6.9862,-6.9905,-6.9913,-7.0198,-7.0199,-7.0625,-7.0631,0,0,0,0,0,0,0,0,0,0,0,-6.9856,-6.9861,-6.9866,-6.9915,-7.0198,-7.0199,-7.0624,-7.0387,0,0,0,0,0,0,0,0,0,0,-7.01,-7.0092,-6.986,-6.9867,-6.9917,-7.0197,-7.0199,-7.0375,-7.0402,-7.0524,0,-7.064,0,-7.0642,-7.0663,-7.0665,0,0,0,-6.9887,-7.007,-7.0113,-6.9867,-6.992,-7.0197,-7.0062,-7.0389,-7.0421,-7.056,-7.0645,-7.066,-7.0649,-7.0666,-7.0669,-7.1454,-7.1459,0,0,-6.9871,-6.993,-7.0092,-7.0134,-7.0092,-7.0053,-7.0071,-7.0407,-7.0505,-7.0647,-7.0669,-7.0656,-7.0669,-7.0673,-7.1449,-7.1455,0,0,0,-6.9844,-6.9921,-6.9953,-7.0119,-7.0165,-7.0062,-7.0083,-7.049,-7.0495,-7.0673,-7.0662,-7.0672,-7.0678,-7.1444,-7.1452,-7.1752,0,0,0,-6.9833,-6.9904,-6.9948,-6.9987,-7.016,-7.0331,-7.0159,-7.0472,-7.0508,-7.0659,-7.0672,-7.0683,-7.1438,-7.1448,-7.1732,-7.1886,0,0,0,-6.9827,-6.9903,-6.9956,-6.999,-7.0114,-7.0324,-7.0348,-7.0479,-7.0504,-7.0665,-7.0684,-7.1435,-7.1446,-7.1714,-7.1856,-7.2111,0,0,0,-6.9839,-7.0221,-6.9962,-7.0385,-7.0112,-7.0507,-7.0345,-7.0636,-7.0811,-7.0675,-7.1439,-7.1451,-7.1709,-7.1838,-7.2092,-7.2337,-7.2443,0,0,-7.0354,-7.0286,-7.0529,-7.0306,-7.0761,-7.0458,-7.0959,-7.1064,-7.1026,-7.1314,-7.1332,-7.1739,-7.1854,-7.2107,-7.3018,-7.3103,0,0,0,-7.0713,-7.0889,-7.0997,-7.1165,-7.1252,-7.1341,-7.1362,-7.14,-7.1641,-7.1185,-7.1896,-7.1963,-7.2109,-7.2223,-7.2296,-7.2418,-7.1505,-7.1504,-7.1503,-7.153,-7.1459,-7.1857,-7.1821,-7.1986,-7.2003,-7.2131,-7.2186,-7.2067,-7.2237,-7.2323,-7.2884,-7.302,-7.3074,-7.3202,-7.2444,-7.2446,-7.2447,-7.2447,-7.2281,-7.252,-7.235,-7.2676,-7.26,-7.2874,-7.2905,-7.2812,-7.3057,-7.2814,-7.2939,-7.2681,-7.317,-7.3278,-7.2469,-7.2466,-7.2463,-7.2461,-7.2459,-7.281,-7.2912,-7.295,-7.3184,-7.3373,-7.3322,-7.3565,-7.3486,-7.3414,-7.3537,-7.362,-7.3615,-7.3601,-7.3581,-7.3583,-7.3585,-7.3587,-7.3588,-7.3589,-7.3344,-7.3377,-7.3591,-7.3715,-7.3811,-7.3929,-7.3949,-7.4042,-7.4126,-7.405,-7.405,-7.3917,-7.323,-7.306,-7.362,-7.3614,-7.361,-7.3607,-7.3605,-7.4136,-7.3943,-7.4273,-7.4371,-7.4508,-7.4702,-7.4596,-7.4794,-7.486,-7.4983,-7.4821,-7.4325,-7.425,-7.4192,-7.4051,-7.4833,-7.4833,-7.4833,-7.4834,-7.4584,-7.4536,-7.4855,-7.5015,-7.5163,-7.51,-7.5477,-7.5497,-7.5487,-7.5523,-7.5398,-7.5203,-7.5147,-7.5105,-7.5027,-7.4895,-7.5874,-7.5875,-7.5876,-7.5067,-7.503,-7.5366,-7.535,-7.5452,-7.5542,-7.5894,-7.6087,-7.6035,-7.5917,-7.5551,-7.5507,-7.5192,-7.5093,-7.497,-7.485,-7.4605,0,0]},{"header":{"parameterUnit":"m.s-1","parameterCategory":1,"la1":30.2992,"la2":30.254,"lo1":-89.0895,"lo2":-89.0443,"dy":0.0025,"dx":0.0025,"nx":19,"ny":19,"refTime":"2026-04-07T03:00:00:Z","depth":0,"parameterNumber":3,"parameterNumberName":"V-component_of_WINDS"},"data":[0,0,0,-1.2325,-1.2325,-1.2359,-1.2359,-1.2397,-1.2398,0,0,0,0,0,0,0,0,0,0,0,-1.2312,-1.2312,-1.2324,-1.2325,-1.2359,-1.2359,-1.2397,-1.2398,0,0,0,0,0,0,0,0,0,0,0,-1.2312,-1.2312,-1.2312,-1.2325,-1.2359,-1.2359,-1.2397,-1.2373,0,0,0,0,0,0,0,0,0,0,-1.2341,-1.2327,-1.2312,-1.2312,-1.2326,-1.2359,-1.2359,-1.2372,-1.2375,-1.238,0,-1.2384,0,-1.2391,-1.24,-1.24,0,0,0,-1.2327,-1.2325,-1.2337,-1.2312,-1.2326,-1.2359,-1.2344,-1.2374,-1.2377,-1.2383,-1.2384,-1.2386,-1.2392,-1.24,-1.24,-1.2421,-1.2421,0,0,-1.2325,-1.2317,-1.2335,-1.2338,-1.2333,-1.2343,-1.2345,-1.2376,-1.2376,-1.2385,-1.2387,-1.2392,-1.24,-1.24,-1.2421,-1.2421,0,0,0,-1.2319,-1.2315,-1.2326,-1.2337,-1.2343,-1.2344,-1.2347,-1.2375,-1.2379,-1.2387,-1.2393,-1.24,-1.2401,-1.2421,-1.2421,-1.2411,0,0,0,-1.2318,-1.2311,-1.2325,-1.232,-1.2342,-1.2359,-1.2345,-1.2377,-1.2381,-1.2393,-1.24,-1.2401,-1.2421,-1.2421,-1.2412,-1.2408,0,0,0,-1.2311,-1.231,-1.2314,-1.2319,-1.2333,-1.2359,-1.2365,-1.2378,-1.2384,-1.24,-1.2401,-1.2421,-1.2421,-1.2412,-1.2409,-1.241,0,0,0,-1.23,-1.2306,-1.2314,-1.2322,-1.2333,-1.2353,-1.2365,-1.2381,-1.2393,-1.2401,-1.2421,-1.2421,-1.2412,-1.2409,-1.2411,-1.241,-1.2409,0,0,-1.2303,-1.2306,-1.2312,-1.232,-1.2336,-1.2349,-1.2363,-1.2384,-1.2394,-1.2411,-1.2412,-1.2411,-1.2409,-1.241,-1.2406,-1.2406,0,0,0,-1.231,-1.2313,-1.232,-1.2331,-1.2346,-1.2358,-1.2377,-1.2384,-1.2399,-1.2401,-1.2413,-1.2412,-1.2413,-1.2413,-1.2412,-1.2414,-1.2421,-1.2421,-1.2421,-1.2301,-1.2312,-1.2322,-1.2337,-1.2347,-1.2365,-1.2375,-1.2387,-1.2397,-1.24,-1.2405,-1.2401,-1.2401,-1.24,-1.2401,-1.2406,-1.2406,-1.2406,-1.2406,-1.2305,-1.2312,-1.2322,-1.2335,-1.2347,-1.2359,-1.2376,-1.2382,-1.2394,-1.2398,-1.24,-1.2404,-1.2399,-1.24,-1.2405,-1.2405,-1.2405,-1.2405,-1.2405,-1.23,-1.2305,-1.2313,-1.2329,-1.2339,-1.2354,-1.2365,-1.2375,-1.2386,-1.2387,-1.2393,-1.2393,-1.2395,-1.2389,-1.2389,-1.2389,-1.2389,-1.2389,-1.2389,-1.2291,-1.2301,-1.2308,-1.2323,-1.233,-1.2341,-1.2359,-1.2366,-1.2377,-1.2384,-1.2385,-1.2393,-1.2396,-1.2396,-1.2389,-1.2389,-1.2389,-1.2389,-1.2389,-1.2291,-1.2292,-1.2304,-1.2311,-1.2328,-1.2337,-1.235,-1.2365,-1.2372,-1.2377,-1.2385,-1.2385,-1.239,-1.2391,-1.2391,-1.2383,-1.2383,-1.2383,-1.2383,-1.2287,-1.2289,-1.2302,-1.2313,-1.2325,-1.2337,-1.2348,-1.2361,-1.2375,-1.238,-1.2383,-1.2384,-1.2384,-1.2388,-1.2389,-1.239,-1.2381,-1.2381,-1.2381,-1.2287,-1.2291,-1.2299,-1.2311,-1.2325,-1.2336,-1.2347,-1.2358,-1.2374,-1.2381,-1.2384,-1.2384,-1.2386,-1.2387,-1.2394,-1.2395,-1.2396,0,0]}]]